| time (UTC) | temp C | wind direction | speed KPH | gust KPH | rain 1hr cm | rain 24hr cm | rain mn cm | humidity % | barometer mb |
| 20260504082002 | 20 | 232 | 6.4 | 162.5 | 0.00 | 0.00 | 0.00 | 4 | 1007.9 |
| 20260504081002 | 20 | 232 | 6.4 | 1012.3 | 0.00 | 0.00 | 0.00 | 4 | 1007.8 |
| 20260504050002 | 13 | 193 | 12.9 | 460.3 | 0.00 | 0.00 | 0.00 | 5 | 1007.0 |
| 20260504045003 | 13 | 193 | 12.9 | 286.5 | 0.00 | 0.00 | 0.00 | 5 | 1006.9 |
| 20260504044002 | 13 | 193 | 12.9 | 178.6 | 0.00 | 0.00 | 0.00 | 5 | 1006.8 |
| 20260504043002 | 13 | 193 | 12.9 | 111.0 | 0.00 | 0.00 | 0.00 | 5 | 1006.8 |
| 20260504042002 | 13 | 193 | 12.9 | 69.2 | 0.00 | 0.00 | 0.00 | 5 | 1006.7 |
| 20260504041002 | 13 | 193 | 12.9 | 69.2 | 0.00 | 0.00 | 0.00 | 5 | 1006.6 |
| 20260504040003 | 13 | 189 | 14.5 | 43.5 | 0.00 | 0.00 | 0.00 | 4 | 1006.7 |
| 20260504035002 | 13 | 189 | 14.5 | 185.1 | 0.00 | 0.00 | 0.00 | 4 | 1006.7 |
| 20260504034002 | 13 | 189 | 14.5 | 185.1 | 0.00 | 0.00 | 0.00 | 4 | 1006.6 |
| 20260504033002 | 13 | 189 | 14.5 | 115.9 | 0.00 | 0.00 | 0.00 | 4 | 1006.6 |
| 20260504032002 | 13 | 189 | 14.5 | 115.9 | 0.00 | 0.00 | 0.00 | 4 | 1006.7 |
| 20260504031002 | 13 | 189 | 14.5 | 72.4 | 0.00 | 0.00 | 0.00 | 4 | 1006.6 |
| 20260504030003 | 13 | 189 | 14.5 | 72.4 | 0.00 | 0.00 | 0.00 | 4 | 1006.6 |
| 20260504025002 | 15 | 185 | 14.5 | 45.1 | 0.00 | 0.00 | 0.00 | 4 | 1006.5 |
| 20260504024002 | 15 | 185 | 14.5 | 45.1 | 0.00 | 0.00 | 0.00 | 4 | 1006.5 |
| 20260504023002 | 15 | 185 | 14.5 | 175.4 | 0.00 | 0.00 | 0.00 | 4 | 1006.5 |
| 20260504022002 | 15 | 185 | 14.5 | 175.4 | 0.00 | 0.00 | 0.00 | 4 | 1006.6 |
| 20260504021002 | 15 | 185 | 14.5 | 175.4 | 0.00 | 0.00 | 0.00 | 4 | 1006.6 |
| 20260504020002 | 15 | 185 | 14.5 | 175.4 | 0.00 | 0.00 | 0.00 | 4 | 1006.4 |
| 20260504015002 | 15 | 183 | 16.1 | 175.4 | 0.00 | 0.00 | 0.00 | 4 | 1006.3 |
| 20260504014001 | 15 | 183 | 16.1 | 175.4 | 0.00 | 0.00 | 0.00 | 4 | 1006.4 |
| 20260504013002 | 15 | 183 | 16.1 | 175.4 | 0.00 | 0.00 | 0.00 | 4 | 1006.2 |
| 20260504012002 | 15 | 183 | 16.1 | 1094.4 | 0.00 | 0.00 | 0.00 | 4 | 1006.3 |
| 20260504011003 | 15 | 183 | 16.1 | 1094.4 | 0.00 | 0.00 | 0.00 | 4 | 1006.3 |
| 20260504010002 | 15 | 183 | 16.1 | 680.8 | 0.00 | 0.00 | 0.00 | 4 | 1006.1 |
| 20260504005004 | 16 | 183 | 16.1 | 680.8 | 0.00 | 0.00 | 0.00 | 4 | 1006.2 |
| 20260504004003 | 16 | 183 | 16.1 | 423.3 | 0.00 | 0.00 | 0.00 | 4 | 1006.2 |
| 20260504003001 | 16 | 183 | 16.1 | 263.9 | 0.00 | 0.00 | 0.00 | 4 | 1006.2 |
| 20260504002003 | 16 | 183 | 16.1 | 164.2 | 0.00 | 0.00 | 0.00 | 4 | 1006.2 |
| 20260504001002 | 16 | 183 | 16.1 | 103.0 | 0.00 | 0.00 | 0.00 | 4 | 1006.3 |
| 20260504000002 | 16 | 183 | 16.1 | 64.4 | 0.00 | 0.00 | 0.00 | 4 | 1006.4 |
| 20260503235002 | 17 | 186 | 16.1 | 64.4 | 0.00 | 0.00 | 0.00 | 4 | 1006.4 |
| 20260503234002 | 17 | 186 | 16.1 | 64.4 | 0.00 | 0.00 | 0.00 | 4 | 1006.4 |
| 20260503233002 | 17 | 186 | 16.1 | 67.6 | 0.00 | 0.00 | 0.00 | 4 | 1006.4 |
| 20260503232002 | 17 | 186 | 16.1 | 67.6 | 0.00 | 0.00 | 0.00 | 4 | 1006.4 |
| 20260503231002 | 17 | 186 | 16.1 | 67.6 | 0.00 | 0.00 | 0.00 | 4 | 1006.5 |
| 20260503230001 | 17 | 186 | 16.1 | 67.6 | 0.00 | 0.00 | 0.00 | 4 | 1006.7 |
| 20260503225003 | 18 | 194 | 17.7 | 67.6 | 0.00 | 0.00 | 0.00 | 3 | 1006.6 |
| 20260503224002 | 18 | 194 | 17.7 | 67.6 | 0.00 | 0.00 | 0.00 | 3 | 1006.6 |
| 20260503223002 | 18 | 194 | 17.7 | 120.7 | 0.00 | 0.00 | 0.00 | 3 | 1006.6 |
| 20260503222002 | 18 | 194 | 17.7 | 75.6 | 0.00 | 0.00 | 0.00 | 3 | 1006.6 |
| 20260503221002 | 18 | 194 | 17.7 | 218.9 | 0.00 | 0.00 | 0.00 | 3 | 1006.7 |
| 20260503220002 | 18 | 194 | 17.7 | 218.9 | 0.00 | 0.00 | 0.00 | 3 | 1006.8 |
| 20260503215002 | 18 | 194 | 17.7 | 218.9 | 0.00 | 0.00 | 0.00 | 3 | 1006.8 |
| 20260503214002 | 18 | 194 | 16.1 | 218.9 | 0.00 | 0.00 | 0.00 | 3 | 1006.8 |
| 20260503213002 | 18 | 194 | 16.1 | 218.9 | 0.00 | 0.00 | 0.00 | 3 | 1006.7 |
| 20260503212003 | 18 | 194 | 16.1 | 218.9 | 0.00 | 0.00 | 0.00 | 3 | 1006.8 |
| 20260503211003 | 18 | 194 | 16.1 | 218.9 | 0.00 | 0.00 | 0.00 | 3 | 1006.7 |
| 20260503210002 | 18 | 194 | 16.1 | 1369.6 | 0.00 | 0.00 | 0.00 | 3 | 1006.8 |
| 20260503205002 | 18 | 194 | 16.1 | 1369.6 | 0.00 | 0.00 | 0.00 | 3 | 1006.7 |
| 20260503204002 | 20 | 190 | 16.1 | 851.3 | 0.00 | 0.00 | 0.00 | 3 | 1006.8 |
| 20260503203002 | 20 | 190 | 16.1 | 851.3 | 0.00 | 0.00 | 0.00 | 3 | 1006.8 |
| 20260503202002 | 20 | 190 | 16.1 | 529.5 | 0.00 | 0.00 | 0.00 | 3 | 1006.7 |
| 20260503201002 | 20 | 190 | 16.1 | 329.9 | 0.00 | 0.00 | 0.00 | 3 | 1006.8 |
| 20260503200002 | 20 | 190 | 16.1 | 206.0 | 0.00 | 0.00 | 0.00 | 3 | 1006.8 |
| 20260503195002 | 20 | 190 | 16.1 | 128.7 | 0.00 | 0.00 | 0.00 | 3 | 1006.9 |
| 20260503194002 | 20 | 185 | 16.1 | 128.7 | 0.00 | 0.00 | 0.00 | 3 | 1006.9 |
| 20260503193002 | 20 | 185 | 16.1 | 80.5 | 0.00 | 0.00 | 0.00 | 3 | 1006.8 |
| 20260503192002 | 20 | 185 | 16.1 | 80.5 | 0.00 | 0.00 | 0.00 | 3 | 1006.8 |
| 20260503191002 | 20 | 185 | 16.1 | 80.5 | 0.00 | 0.00 | 0.00 | 3 | 1006.8 |
| 20260503190002 | 20 | 185 | 16.1 | 80.5 | 0.00 | 0.00 | 0.00 | 3 | 1006.7 |
| 20260503185002 | 20 | 185 | 16.1 | 80.5 | 0.00 | 0.00 | 0.00 | 3 | 1006.6 |
| 20260503184003 | 22 | 182 | 12.9 | 80.5 | 0.00 | 0.00 | 0.00 | 3 | 1006.6 |
| 20260503183002 | 22 | 182 | 12.9 | 62.8 | 0.00 | 0.00 | 0.00 | 3 | 1006.5 |
| 20260503182002 | 22 | 182 | 12.9 | 62.8 | 0.00 | 0.00 | 0.00 | 3 | 1006.4 |
| 20260503181003 | 22 | 182 | 12.9 | 62.8 | 0.00 | 0.00 | 0.00 | 3 | 1006.4 |
| 20260503180004 | 22 | 182 | 12.9 | 62.8 | 0.00 | 0.00 | 0.00 | 3 | 1006.3 |
| 20260503175002 | 22 | 182 | 12.9 | 62.8 | 0.00 | 0.00 | 0.00 | 3 | 1006.3 |
| 20260503174003 | 23 | 183 | 12.9 | 62.8 | 0.00 | 0.00 | 0.00 | 2 | 1006.3 |
| 20260503173002 | 23 | 183 | 12.9 | 56.3 | 0.00 | 0.00 | 0.00 | 2 | 1006.3 |
| 20260503172003 | 23 | 183 | 12.9 | 56.3 | 0.00 | 0.00 | 0.00 | 2 | 1006.3 |
| 20260503171002 | 23 | 183 | 12.9 | 56.3 | 0.00 | 0.00 | 0.00 | 2 | 1006.3 |
| 20260503151002 | 25 | 188 | 16.1 | 33.8 | 0.00 | 0.00 | 0.00 | 2 | 1006.9 |
| 20260503131003 | 25 | 193 | 12.9 | 478.0 | 0.00 | 0.00 | 0.00 | 2 | 1008.2 |